sat.trackr.live / text

‹ back to catalog

STARLINK-36796

NORAD 67722 · 2026-026B

PAYLOAD ACTIVE UNKNOWN

§ Identity

Operator
Country
US
Launch date
2026-02-11
Launch site
AFWTR
Launch vehicle
Mass (kg)
RCS (m²)

Purposes: comms

External: N2YO · Heavens-Above · Gunter

§ Orbital elements

Epoch: 2026-09-19T08:58:50.586240Z

Period
93.91 min
Inclination
97.2847°
Eccentricity
0.0000794
Mean motion
15.33455209 rev/d
Perigee alt
465.0 km
Apogee alt
466.1 km
Semi-major
6,843.6 km
B*
4.6708e-4
RAAN
314.1537°
Arg perigee
106.6261°
Mean anomaly
253.5069°
Rev number
3,380

§ Raw data

STARLINK-367961 67722U 26026B   26262.37419660  .00015039  00000+0  46708-3 0  99992 67722  97.2847 314.1537 0000794 106.6261 253.5069 15.33455209 33800

JSON: /api/v1/satellites/67722 · /tle

For live sub-satellite position, see the globe view (requires WebGL).

§ Visibility from observer

Set your observer location to see the next 7 days of passes ≥ 10°. The values pass through the URL so the page stays shareable.

No JS? Fill the form by hand. The geolocation button needs JavaScript.